STARLINK-34734

Last updated on Mon Oct 20 2025 00:02:06 GMT+0000 (Coordinated Universal Time)

1 65696U 25212W 25292.29310367 .00074082 00000+0 13263-2 0 9992 2 65696 53.1582 282.5461 0001271 83.4592 276.6562 15.49332804 5590
UTC large
Height (km)
Speed (km/s)
/
Latitude / Longitude
Inclination (degrees)
Orbital Period (minutes)
Azimuth
Elevation
Range (km)
Doppler Factor

Next 0 passes for location: London (51.5072 / 0.1276)

Sorry there are no passes over London.